Location: Ahstedt
(52.2048°N, 10.1060°E)
Time: 01:03:03
(UTC+00:00)

Cosmos 1862 Rocket - Pass Details

Date: 18 January 2026
Orbit: 596 x 627 km, 82.5° (Epoch: 18 February)

Event Time Altitude Azimuth Distance (km) Brightness Sun altitude
Exits shadow 05:59:55 - 337° (NNW) 2,326 6.1 -11.7°
Reaches altitude 10° 06:00:53 10° 332° (NNW) 1,968 5.7 -11.5°
Maximum altitude 06:04:44 32° 270° (W) 1,054 4.2 -11.0°
Drops below altitude 10° 06:08:32 10° 207° (SSW) 1,939 6.0 -10.4°
Sets 06:10:53 0° 198° (SSW) 2,834 7.0 -10.1°
